Location: ???????
(60.4260°N, 46.9069°E)
Time: 05:44:53
(UTC+00:00)

Resurs 1-4 Rocket - Pass Details

Date: 30 March 2020
Orbit: 799 x 814 km, 98.6° (Epoch: 05 June)

Event Time Altitude Azimuth Distance (km) Brightness Sun altitude
Rises 01:28:40 0° 20° (NNE) 3,350 6.0 -7.2°
Reaches altitude 10° 01:31:42 10° 3° (N) 2,413 4.9 -6.9°
Maximum altitude 01:35:11 18° 322° (NW) 1,902 3.9 -6.5°
Drops below altitude 10° 01:38:39 10° 281° (W) 2,400 4.0 -6.1°
Enters shadow 01:40:02 - 271° (W) 2,795 4.3 -5.9°
